OpenBCM V1.08-5-g2f4a (Linux)

Packet Radio Mailbox

IZ3LSV

[San Dona' di P. JN]

 Login: GUEST





  
I0OJJ  > KEPS     26.08.25 01:30l 314 Lines 15015 Bytes #114 (0) @ AMSAT
BID : ORB25238.1
Read: GUEST
Subj: 2Line Orbital Elements 25238.AMSAT
Path: IZ3LSV<IK6IHL<IK7NXU<HB9ON<HB9ON<PI8ZTM<CX2SA<N6RME<I0OJJ
Sent: 250826/0025z @:I0OJJ.ITA.EU [Rome] obcm1.08-10-g596e
From: I0OJJ @ I0OJJ.ITA.EU (Gustavo)
To:   KEPS @ AMSAT
X-Info: This message was generated automatically


QST de KM1P

AMSAT Orbital Elements for Amateur Satellites in TLE Format
From Orbital Analysis Auxilliary Summer Office
New England Sci-Tech STEM Education Center
Narragansett RI August 26, 2025
To all radio amateurs


These element sets describe the orbits of various satellites 
in use by the amateur radio community. For details see:
www.amsat.org/keplerian-elements-formats/

A daily update of element sets is available at:
www.amsat.org/tle/daily-bulletin.txt
or without bulletin text:
www.amsat.org/tle/dailytle.txt


AO-07
1 07530U 74089B   25237.58352457 -.00000041  00000-0  32052-4 0  9993
2 07530 101.9970 242.6745 0012110 337.1470 139.1893 12.53691037323474
UO-11
1 14781U 84021B   25237.45379096  .00001373  00000-0  14953-3 0  9997
2 14781  97.7617 202.3386 0009437  83.9288 276.3004 14.89579772213080
AO-27
1 22825U 93061C   25237.42075587  .00000103  00000-0  56308-4 0  9995
2 22825  98.7307 299.3373 0007372 244.3049 115.7372 14.30820364664706
FO-29
1 24278U 96046B   25237.57186459  .00000001  00000-0  34538-4 0  9990
2 24278  98.5630 121.2977 0350475 142.9797 219.6086 13.53251907433185
NOAA-15
1 25338U 98030A   25237.58979421  .00000103  00000-0  59731-4 0  9998
2 25338  98.5332 260.8592 0011193 129.7257 230.4912 14.27006315419131
GO-32
1 25397U 98043D   25237.54341223  .00000051  00000-0  42232-4 0  9996
2 25397  98.9779 218.2949 0001550  32.2181 327.9091 14.24331579409249
ISS
1 25544U 98067A   25237.49704057  .00011679  00000-0  21103-3 0  9999
2 25544  51.6352 323.5450 0003284 269.6475  90.4138 15.50171099525917
NO-44
1 26931U 01043C   25237.55661431  .00000098  00000-0  67900-4 0  9992
2 26931  67.0504 288.8113 0006851 275.9853  84.0468 14.31766102248123
SO-50
1 27607U 02058C   25237.56197915  .00000896  00000-0  12791-3 0  9995
2 27607  64.5541 322.8716 0064412 317.6644  41.9499 14.81807602220632
CO-55
1 27844U 03031E   25237.54797471  .00000265  00000-0  13441-3 0  9994
2 27844  98.6782 244.8359 0008957 330.9376  29.1303 14.24047178149596
CO-57
1 27848U 03031J   25237.46223231  .00000231  00000-0  12113-3 0  9995
2 27848  98.6811 244.6984 0009243 349.4709  10.6274 14.23374685149305
RS-22
1 27939U 03042A   25237.60133196  .00000999  00000-0  16554-3 0  9998
2 27939  98.3352  48.9511 0012415 122.8752 326.3300 14.72513848172033
CO-58
1 28895U 05043F   25237.37634619  .00001445  00000-0  24235-3 0  9995
2 28895  98.2603  22.7398 0015516  66.1289 294.1541 14.71241643 58230
CO-65
1 32785U 08021C   25237.54315619  .00005645  00000-0  40083-3 0  9997
2 32785  97.7917 209.3386 0008420 319.8192  40.2411 15.05106949940651
CO-66
1 32791U 08021J   25237.48835114  .00011896  00000-0  54932-3 0  9997
2 32791  97.7337 219.3581 0001307 232.2191 127.8925 15.20368113942177
RS-30
1 32953U 08025A   25237.58130170  .00000036  00000-0  19166-3 0  9996
2 32953  82.5062 179.2981 0017952 236.5648 123.3716 12.43167508782964
NOAA-19
1 33591U 09005A   25237.57864809  .00000091  00000-0  72652-4 0  9997
2 33591  98.9918 302.6957 0014463 143.2641 216.9525 14.13398635852725
SRMSAT
1 37841U 11058D   25237.50815774  .00000395  00000-0  70833-4 0  9996
2 37841  19.9729  49.0134 0011694 191.0319 199.5183 14.11455440715994
ZACUBE-1
1 39417U 13066B   25237.45651169  .00003003  00000-0  25941-3 0  9996
2 39417  97.7864 194.1183 0044178 152.9151 207.4390 14.97250119636416
Delfi-N3xt
1 39428U 13066N   25237.31602890  .00006008  00000-0  59998-3 0  9997
2 39428  97.8298 154.1339 0085352 107.2445 253.8135 14.89151385630497
GOMX-1
1 39430U 13066Q   25237.51999223  .00001358  00000-0  21696-3 0  9998
2 39430  97.6754  91.4456 0130774 306.5907  52.3324 14.67901767626517
LO-74
1 39440U 13066AA  25237.42688743  .00002835  00000-0  28704-3 0  9999
2 39440  97.8528 181.4933 0059647 286.9934  72.4753 14.90470093632884
AO-73
1 39444U 13066AE  25237.45328999  .00006772  00000-0  49550-3 0  9996
2 39444  97.7870 199.7294 0042500 125.7461 234.7728 15.03191558635131
DTUSAT-2
1 40030U 14033W   25237.35960397  .00006368  00000-0  40507-3 0  9991
2 40030  98.0616 212.9675 0009961 150.6685 209.5103 15.09149074607976
EO-80
1 40032U 14033Y   25237.57486762  .00005663  00000-0  35987-3 0  9999
2 40032  98.0500 212.7411 0010601  99.4191 260.8235 15.09231650607980
LILACSAT-2
1 40908U 15049K   25237.62289917  .00010532  00000-0  26134-3 0  9993
2 40908  97.5036 259.9073 0007286 233.6614 126.3960 15.40523096550086
IO-86
1 40931U 15052B   25151.18580175  .00001241  00000-0  78118-4 0  9996
2 40931   6.0006  24.0987 0012733 338.8432  21.1169 14.78805930523159
Horyu-4
1 41340U 16012D   25237.49199515  .00023269  00000-0  55985-3 0  9991
2 41340  30.9973 333.5540 0007200 138.5873 221.5320 15.40025688524647
Lapan A3
1 41603U 16040E   25237.60500380  .00003169  00000-0  11033-3 0  9996
2 41603  97.1402 239.2237 0010786   5.3134 354.8220 15.30336548509562
CAS-2T
1 41847U 16066G   25237.61799150  .00000532  00000-0  85834-4 0  9992
2 41847  98.4156 311.3986 0344457 305.5307  51.4209 14.43665692462133
CAS-4B
1 42759U 17034B   25237.38450126  .00119000  00000-0  74015-3 0  9991
2 42759  43.0020 220.4626 0020564 114.6450 245.6564 15.75555074454669
CAS-4A
1 42761U 17034D   25237.39773147  .00100811  00000-0  56414-3 0  9999
2 42761  43.0053 216.3955 0021376 121.8386 238.4569 15.77963120454692
TechnoSat
1 42829U 17042E   25237.52754014  .00002883  00000-0  22267-3 0  9999
2 42829  97.4000  42.5906 0018098  26.8548 333.3611 15.02172184442272
AO-91
1 43017U 17073E   25237.56913491  .00006157  00000-0  31197-3 0  9993
2 43017  97.5136 106.4080 0167368 264.0233  94.1899 15.05900934420796
S-Net D
1 43186U 18014G   25237.59088102  .00004506  00000-0  26257-3 0  9998
2 43186  97.5531 139.7099 0007853 331.6746  28.4056 15.12479195414014
S-Net B
1 43187U 18014H   25237.59729157  .00004694  00000-0  27349-3 0  9992
2 43187  97.5536 139.6919 0008404 325.3564  34.7118 15.12459023414018
S-Net A
1 43188U 18014J   25237.59099457  .00004495  00000-0  26186-3 0  9993
2 43188  97.5545 139.8459 0008321 326.4614  33.6088 15.12485030414017
S-Net C
1 43189U 18014K   25237.59987946  .00004752  00000-0  27680-3 0  9999
2 43189  97.5560 139.8819 0009592 316.3051  43.7420 15.12455689412566
Ten-Koh
1 43677U 18084G   25237.47290379  .00001919  00000-0  15586-3 0  9996
2 43677  98.0833  52.7747 0007129  21.1299 339.0217 15.00884511371778
PO-101
1 43678U 18084H   25237.64769583  .00002435  00000-0  20812-3 0  9996
2 43678  98.1079  56.7465 0009156  43.4152 316.7789 14.98632466371929
QO-100
1 43700U 18090A   25237.60650266  .00000136  00000-0  00000-0 0  9992
2 43700   0.0141 129.3561 0001061  39.1046  49.7799  1.00271636 24715
MinXSS-2
1 43758U 18099A   25237.14427868  .00014941  00000-0  55106-3 0  9992
2 43758  97.4960 303.5160 0010304 240.1092 119.9123 15.27839828368655
AO-95
1 43770U 18099N   25237.12298617  .00007912  00000-0  38709-3 0  9992
2 43770  97.4851 294.3982 0008891 309.8588  50.1863 15.18437604368167
SNUSat 2
1 43782U 18099AA  25237.61474690  .00006394  00000-0  33991-3 0  9997
2 43782  97.4532 290.9967 0010453 241.9460 118.0716 15.15577991368165
SnugLite
1 43784U 18099AC  25237.59754109  .00007734  00000-0  37502-3 0  9993
2 43784  97.4344 290.7077 0002309 220.5905 139.5158 15.18784639368324
ITASat 1
1 43786U 18099AE  25237.37835523  .00005232  00000-0  29316-3 0  9996
2 43786  97.4500 290.0418 0012526 303.6013  56.4022 15.13770347368072
EAGLET 1
1 43790U 18099AJ  25237.38818799  .00003052  00000-0  19356-3 0  9999
2 43790  97.4698 289.7417 0010277 287.7017  72.3090 15.09610460367655
ESEO
1 43792U 18099AL  25237.11025069  .00001105  00000-0  86684-4 0  9998
2 43792  97.4426 281.6966 0009794 260.3295  99.6824 15.02861147367316
JO-97
1 43803U 18099AX  25237.13347881  .00010238  00000-0  44636-3 0  9999
2 43803  97.4597 295.5787 0006348 226.1637 133.9075 15.22350856368419
Suomi 100
1 43804U 18099AY  25237.14533691  .00008335  00000-0  39348-3 0  9996
2 43804  97.4663 294.6559 0010893 235.3594 124.6614 15.19643384368328
ISAT
1 43879U 18111D   25237.28251570  .00018922  00000-0  60200-3 0  9995
2 43879  97.5890 153.4892 0005390 292.1126  67.9543 15.32630689365431
UWE-4
1 43880U 18111E   25237.28298555  .00013531  00000-0  49808-3 0  9993
2 43880  97.5834 151.3970 0009138 308.1674  51.8741 15.27942365365337
Sparrow
1 43881U 18111F   25237.59010319  .00022599  00000-0  68656-3 0  9994
2 43881  97.6048 156.9972 0004930 350.9365   9.1787 15.34066697365582
Prox-1
1 44339U 19036A   25237.17897843  .00009488  00000-0  11540-2 0  9990
2 44339  23.9961 278.1250 0006871 219.0033 140.9969 14.81333728329383
Taurus 1
1 44530U 19059C   25237.63594177  .00005914  00000-0  10721-2 0  9993
2 44530  98.6151  20.7619 0009997 153.4977 206.6739 14.66640653315231
Duchifat 3
1 44854U 19089C   25237.35923806  .00056980  00000-0  86886-3 0  9994
2 44854  36.9388 224.7089 0007550 223.3787 136.6378 15.53383988314932
TO-108
1 44881U 19093C   25237.60965809  .00000743  00000-0  91665-4 0  9994
2 44881  97.7878 311.6375 0013254 344.6054  15.4756 14.85735555307512
FloripaSat 1
1 44885U 19093G   25237.58981846  .00005322  00000-0  44185-3 0  9996
2 44885  97.8143 325.3758 0007976 311.5211  48.5327 14.99178268308284
RS-44
1 44909U 19096E   25237.32798852  .00000021  00000-0  30215-4 0  9992
2 44909  82.5246 176.2950 0218411 115.9684 246.4096 12.79742729264504
UPMSat 2
1 46276U 20061E   25237.15233516  .00123092  00000-0  60835-3 0  9991
2 46276  97.2355 314.7201 0002336 209.1941 150.9197 15.81727309277513
SALSAT
1 46495U 20068K   25237.54213036  .00006538  00000-0  27519-3 0  9996
2 46495  97.8673 219.2064 0009190 250.8524 109.1717 15.23711510270246
